Time,TemperatureF,DewpointF,PressureIn,WindDirection,WindDirectionDegrees,WindSpeedMPH,WindSpeedGustMPH,Humidity,HourlyPrecipIn,Conditions,Clouds,dailyrainin,SolarRadiationWatts/m^2,SoftwareType,DateUTC
2013-09-30 00:00:00,56.2,54.8,30.03,SE,136,0.0,0.0,95,0.00,,OVC018,0.00,0.00,VWS V14.00,2013-09-30 04:00:00,
2013-09-30 01:00:00,55.4,54.3,30.02,SE,136,0.0,0.0,96,0.00,,OVC018,0.00,0.00,VWS V14.00,2013-09-30 05:00:00,
2013-09-30 02:00:00,54.1,53.0,30.03,SE,136,0.0,0.0,96,0.00,,OVC018,0.00,0.00,VWS V14.00,2013-09-30 06:00:00,
2013-09-30 03:00:00,55.8,55.0,30.03,North,354,0.0,0.0,97,0.00,,OVC018,0.00,0.00,VWS V14.00,2013-09-30 07:00:00,
2013-09-30 04:00:00,54.5,53.7,30.04,North,354,0.0,0.0,97,0.00,,OVC018,0.00,0.00,VWS V14.00,2013-09-30 08:00:00,
2013-09-30 05:00:00,52.7,51.9,30.06,North,354,0.0,0.0,97,0.00,,OVC018,0.00,0.00,VWS V14.00,2013-09-30 09:00:00,
2013-09-30 06:00:00,51.4,50.6,30.08,North,354,0.0,0.0,97,0.00,,OVC018,0.00,0.00,VWS V14.00,2013-09-30 10:00:00,
2013-09-30 07:00:00,51.8,51.0,30.10,North,354,0.0,0.0,97,0.00,,OVC018,0.00,44.00,VWS V14.00,2013-09-30 11:00:00,
2013-09-30 08:00:00,57.0,56.4,30.10,NNW,345,0.0,0.0,98,0.00,,OVC018,0.00,248.00,VWS V14.00,2013-09-30 12:00:00,
2013-09-30 09:00:00,61.6,60.2,30.10,WNW,283,0.0,0.0,95,0.00,,OVC018,0.00,283.00,VWS V14.00,2013-09-30 13:00:00,
2013-09-30 10:00:00,65.6,60.3,30.10,ENE,72,0.0,0.0,83,0.00,,OVC018,0.00,508.00,VWS V14.00,2013-09-30 14:00:00,
2013-09-30 11:00:00,70.5,58.2,30.09,North,359,0.0,0.0,65,0.00,,OVC018,0.00,466.00,VWS V14.00,2013-09-30 15:00:00,
2013-09-30 12:00:00,72.9,58.2,30.08,East,88,0.0,1.0,60,0.00,,OVC018,0.00,793.00,VWS V14.00,2013-09-30 16:00:00,
2013-09-30 13:00:00,73.6,57.0,30.06,NW,308,0.0,0.0,56,0.00,,OVC018,0.00,854.00,VWS V14.00,2013-09-30 17:00:00,
2013-09-30 15:00:00,75.9,58.6,30.00,NE,53,0.0,4.0,55,0.00,,OVC018,0.00,696.00,VWS V14.00,2013-09-30 19:00:00,
2013-09-30 16:00:00,76.8,58.9,29.99,North,1,0.0,0.0,54,0.00,,OVC018,0.00,162.00,VWS V14.00,2013-09-30 20:00:00,
2013-09-30 17:00:00,78.0,61.0,30.00,North,358,0.0,1.0,56,0.00,,OVC018,0.00,315.00,VWS V14.00,2013-09-30 21:00:00,
2013-09-30 18:00:00,69.5,62.3,30.04,West,280,0.0,0.0,78,0.00,,OVC018,0.00,26.00,VWS V14.00,2013-09-30 22:00:00,
2013-09-30 19:00:00,64.5,60.5,30.05,West,281,0.0,0.0,87,0.00,,OVC018,0.00,0.00,VWS V14.00,2013-09-30 23:00:00,
2013-09-30 20:00:00,61.6,59.3,30.07,West,281,0.0,0.0,92,0.00,,OVC018,0.00,0.00,VWS V14.00,2013-10-01 00:00:00,
2013-09-30 22:00:00,58.7,57.3,30.08,WSW,255,0.0,0.0,95,0.00,,OVC018,0.00,0.00,VWS V14.00,2013-10-01 02:00:00,
2013-09-30 23:00:00,57.6,56.2,30.08,WSW,255,0.0,0.0,95,0.00,,OVC018,0.00,0.00,VWS V14.00,2013-10-01 03:00:00,